HELLAS-SAT 3 (42814 NORAD) Tracking and Keplerian Element Data

This shows tracking and keplerian element data for the satellite.

Feedback or suggestion? Click here.




ElementValue
Catalog42814
NameHELLAS-SAT 3
Epoch Orbit2780
Epoch Day34.61990707
Epoch Year2025
RAAN39.3856
Inclination0.0521
Eccentricity0.0004141
Argument of Perigee303.2535
Mean Anonmoly53.5322
Mean Motion1.00273928
Decay Rate1.57E-06
L11 42814U 17040A 25034.61990707 .00000157 00000+0 00000+0 0 9995
L22 42814 0.0521 39.3856 0004141 303.2535 53.5322 1.00273928 27803



Live tracking and technical data element details for HELLAS-SAT 3 (NORAD 42814). HELLAS-SAT 3 can be tracked NOW for your location showing map with azimuth and elevation plus other details from your city location.







IsCatalogInMostPopularTable: catalog: 42814, numindb: 720
Update: records affected: 1



GetName: 42814 HELLAS-SAT 3

Hit Count: updated at: Wed, 30 Apr 2025 16:04:23 GMT